Regional Weather Roundup
Issued by NWS

Home | Current Version | Previous Version | Graphics & Text | Print | Product List | Glossary On
Versions: 1 2 3 4 5 6 7 8 9 10 11 12 13 14 15 16 17 18 19 20 21 22 23 24 25 26 27 28 29 30 31 32 33 34 35 36 37 38 39 40 41 42 43 44 45 46 47 48 49 50
000
ASUS44 KMEG 271500
RWRTN
TENNESSEE HOURLY STATE WEATHER ROUNDUP
NATIONAL WEATHER SERVICE MEMPHIS TN
900 AM CST TUE JAN 27 2015

TNZ002-004-019-021-049-052-054-088>092-271600-
WEST TENNESSEE

CITY           SKY/WX    TMP DP  RH WIND       PRES   REMARKS
MEMPHIS INTL   SUNNY     49  36  61 N8G21     30.10R
NWS MEMPHIS      N/A     45 N/A N/A MISG        N/A
JACKSON        SUNNY     42  35  76 N13       30.08R
DYERSBURG      SUNNY     43  27  52 N12       30.11R
UNION CITY     SUNNY     36  36 100 N12       30.08R WCI  27
PARIS          CLOUDY    34  30  86 N6        30.07R WCI  29
LEXINGTON      SUNNY     39  34  81 N13       30.05R WCI  32
SAVANNAH       SUNNY     41  37  87 N9        30.06R
$$

TNZ008-025-027-028-033-062-065-066-271600-
NORTH MIDDLE TENNESSEE

CITY           SKY/WX    TMP DP  RH WIND       PRES   REMARKS
NASHVILLE      PTSUNNY   38  32  79 NW10      30.03R WCI  31
CLARKSVILLE    MOSUNNY   38  33  82 NW14      30.04R WCI  30
COOKEVILLE     CLOUDY    34  34 100 CALM      29.97R
CROSSVILLE     CLOUDY    32  29  88 NW10G18   29.93R WCI  24
$$

TNZ061-075-076-078-094-096-097-271600-
SOUTH MIDDLE TENNESSEE

CITY           SKY/WX    TMP DP  RH WIND       PRES   REMARKS
FAYETTEVILLE   SUNNY     39  32  75 N16G26    29.99R WCI  30
TULLAHOMA      MOSUNNY   36  30  80 N13       29.98R WCI  27
WINCHESTER     CLOUDY    37  32  81 NW10      30.00R WCI  30
SHELBYVILLE    MOSUNNY   39  34  81 N14       30.01R WCI  31
$$

TNZ017-018-042-046-047-271600-
NORTHEAST TENNESSEE

CITY           SKY/WX    TMP DP  RH WIND       PRES   REMARKS
TRI CITIES     CLOUDY    31  22  69 N3        29.93R
ELIZABETHTON   CLOUDY    27  19  74 NW3       29.91R
$$

TNZ012-013-036-069-073-074-271600-
CENTRAL EAST TENNESSEE

CITY           SKY/WX    TMP DP  RH WIND       PRES   REMARKS
KNOXVILLE      LGT SNOW  32  30  92 CALM      29.96R FOG
OAK RIDGE      CLOUDY    34  31  88 CALM      29.98R
GATLINBURG     CLOUDY    30  28  93 CALM      29.96R
$$

TNZ083-085-099-271600-
SOUTHEAST TENNESSEE

CITY           SKY/WX    TMP DP  RH WIND       PRES   REMARKS
CHATTANOOGA    CLOUDY    38  32  79 CALM      29.98R
$$

SKY/WX REPORTED AS FAIR MEANS FEW OR NO CLOUDS BELOW
12 THOUSAND FEET.




USA.gov is the U.S. government's official web portal to all federal, state and local government web resources and services.